Location: G�ndlingen
(48.0142°N, 7.6396°E)
Time: 01:33:55
(UTC+00:00)

ATLAS 5 CENTAUR R/B - Pass Details

Date: 05 July 2020
Orbit: 534 x 1124 km, 63.4° (Epoch: 06 August)

Event Time Altitude Azimuth Distance (km) Brightness Sun altitude
Rises 21:05:10 0° 229° (SW) 2,712 4.8 -11.8°
Reaches altitude 10° 21:07:17 10° 233° (SW) 1,859 4.0 -12.0°
Maximum altitude 21:11:23 63° 315° (NW) 686 2.1 -12.4°
Drops below altitude 10° 21:16:05 10° 37° (NE) 2,121 4.6 -12.8°
Sets 21:18:38 0° 40° (NE) 3,137 5.4 -13.1°
